TimeCDT,TemperatureF,Dew PointF,Humidity,Sea Level PressureIn,VisibilityMPH,Wind Direction,Wind SpeedMPH,Gust SpeedMPH,PrecipitationIn,Events,Conditions,WindDirDegrees,DateUTC
12:58 AM,63.5,41.7,45,30.02,10.0,NNE,8.1,-,N/A,,Partly Cloudy,20,2013-10-06 05:58:00
1:58 AM,64.0,43.5,47,30.04,10.0,NNE,13.8,-,N/A,,Mostly Cloudy,20,2013-10-06 06:58:00
2:53 AM,64.4,44.6,49,30.07,10.0,North,10.4,-,N/A,Rain,Light Rain,10,2013-10-06 07:53:00
2:58 AM,63.9,45.5,51,30.05,5.0,NNE,11.5,-,0.01,Rain,Light Rain,30,2013-10-06 07:58:00
3:03 AM,60.8,48.2,63,30.06,4.0,NNE,13.8,-,N/A,Rain,Rain,30,2013-10-06 08:03:00
3:08 AM,59.0,48.2,67,30.06,8.0,North,16.1,-,N/A,Rain,Light Rain,10,2013-10-06 08:08:00
3:13 AM,59.0,48.2,67,30.05,10.0,NNE,13.8,23.0,N/A,Rain,Light Rain,30,2013-10-06 08:13:00
3:19 AM,59.0,48.2,67,30.05,10.0,North,10.4,23.0,N/A,,Mostly Cloudy,10,2013-10-06 08:19:00
3:58 AM,59.9,48.4,66,30.06,10.0,North,8.1,-,0.05,,Overcast,10,2013-10-06 08:58:00
4:09 AM,60.8,48.2,63,30.09,10.0,North,17.3,-,N/A,,Light Drizzle,350,2013-10-06 09:09:00
4:49 AM,55.4,50.0,82,30.11,3.0,North,11.5,-,N/A,Rain-Thunderstorm,Heavy Thunderstorms and Rain,10,2013-10-06 09:49:00
4:54 AM,55.4,50.0,82,30.10,2.5,NNE,10.4,-,N/A,Rain-Thunderstorm,Heavy Thunderstorms and Rain,20,2013-10-06 09:54:00
4:58 AM,53.6,50.0,88,30.09,2.5,NNE,11.5,-,0.04,Rain,Heavy Rain,30,2013-10-06 09:58:00
5:03 AM,53.6,50.0,88,30.10,3.0,NNE,10.4,-,N/A,Rain,Heavy Rain,30,2013-10-06 10:03:00
5:08 AM,53.6,50.0,88,30.10,3.0,NNE,12.7,18.4,N/A,Rain,Heavy Rain,30,2013-10-06 10:08:00
5:13 AM,53.6,50.0,88,30.11,6.0,NNE,11.5,18.4,N/A,Rain,Light Rain,20,2013-10-06 10:13:00
5:18 AM,53.6,50.0,88,30.11,9.0,NNE,9.2,18.4,N/A,Rain,Rain,20,2013-10-06 10:18:00
5:23 AM,53.6,50.0,88,30.10,9.0,NNE,8.1,-,N/A,Rain,Rain,30,2013-10-06 10:23:00
5:28 AM,53.6,50.0,88,30.10,8.0,NNE,8.1,-,N/A,Rain,Rain,30,2013-10-06 10:28:00
5:33 AM,53.6,50.0,88,30.11,8.0,NNE,9.2,-,N/A,Rain,Light Rain,30,2013-10-06 10:33:00
5:38 AM,53.6,50.0,88,30.10,10.0,NNE,10.4,-,N/A,Rain,Light Rain,30,2013-10-06 10:38:00
5:58 AM,53.8,50.4,88,30.08,10.0,NE,9.2,-,0.06,Rain,Light Rain,40,2013-10-06 10:58:00
6:33 AM,55.4,50.0,82,30.11,10.0,NE,4.6,-,N/A,,Scattered Clouds,40,2013-10-06 11:33:00
6:58 AM,54.9,51.4,88,30.11,10.0,North,4.6,-,0.00,,Mostly Cloudy,10,2013-10-06 11:58:00
7:58 AM,55.6,51.4,86,30.12,10.0,North,5.8,-,N/A,,Mostly Cloudy,10,2013-10-06 12:58:00
8:58 AM,57.7,53.1,84,30.11,10.0,North,8.1,-,N/A,,Clear,10,2013-10-06 13:58:00
9:58 AM,63.0,50.2,63,30.13,10.0,North,8.1,-,N/A,,Clear,10,2013-10-06 14:58:00
10:58 AM,68.5,45.5,44,30.15,10.0,NNE,9.2,-,N/A,,Clear,20,2013-10-06 15:58:00
11:58 AM,71.8,42.6,35,30.15,10.0,NE,12.7,17.3,N/A,,Clear,40,2013-10-06 16:58:00
12:58 PM,74.7,40.6,29,30.13,10.0,ENE,12.7,18.4,N/A,,Clear,60,2013-10-06 17:58:00
1:08 PM,75.2,37.4,25,30.14,10.0,North,12.7,20.7,N/A,,Clear,10,2013-10-06 18:08:00
1:58 PM,76.6,37.2,24,30.11,10.0,ENE,10.4,-,N/A,,Clear,60,2013-10-06 18:58:00
2:58 PM,77.9,38.7,24,30.09,10.0,North,8.1,-,N/A,,Clear,10,2013-10-06 19:58:00
3:58 PM,78.8,40.5,25,30.08,5.0,Variable,5.8,-,N/A,,Haze,0,2013-10-06 20:58:00
4:23 PM,78.8,41.0,26,30.08,4.0,North,9.2,-,N/A,,Haze,10,2013-10-06 21:23:00
4:28 PM,78.8,41.0,26,30.08,7.0,North,9.2,-,N/A,,Clear,10,2013-10-06 21:28:00
4:58 PM,79.0,37.4,22,30.07,10.0,North,9.2,-,N/A,,Clear,350,2013-10-06 21:58:00
5:58 PM,78.4,38.5,24,30.06,10.0,North,6.9,-,N/A,,Clear,350,2013-10-06 22:58:00
6:58 PM,73.9,42.4,32,30.08,10.0,North,4.6,-,N/A,,Clear,350,2013-10-06 23:58:00
7:58 PM,68.5,46.2,45,30.09,10.0,Calm,Calm,-,N/A,,Clear,0,2013-10-07 00:58:00
8:13 PM,66.2,44.6,46,30.10,5.0,Calm,Calm,-,N/A,,Haze,0,2013-10-07 01:13:00
8:18 PM,64.4,44.6,49,30.10,4.0,Calm,Calm,-,N/A,,Haze,0,2013-10-07 01:18:00
8:33 PM,66.2,46.4,49,30.11,5.0,Calm,Calm,-,N/A,,Haze,0,2013-10-07 01:33:00
8:38 PM,66.2,42.8,43,30.11,10.0,Calm,Calm,-,N/A,,Clear,0,2013-10-07 01:38:00
8:43 PM,68.0,46.4,46,30.11,9.0,Calm,Calm,-,N/A,,Clear,0,2013-10-07 01:43:00
8:53 PM,64.4,50.0,59,30.11,9.0,NNW,2.3,-,N/A,,Clear,340,2013-10-07 01:53:00
8:58 PM,64.2,50.0,60,30.12,10.0,North,2.3,-,N/A,,Clear,350,2013-10-07 01:58:00
9:58 PM,59.0,49.6,71,30.12,10.0,NNW,6.9,-,N/A,,Clear,330,2013-10-07 02:58:00
10:58 PM,57.2,49.5,75,30.13,10.0,NNW,8.1,-,N/A,,Clear,330,2013-10-07 03:58:00
11:58 PM,55.8,48.4,76,30.13,10.0,NNW,8.1,-,N/A,,Clear,330,2013-10-07 04:58:00